CW2014 Weather Reports


Display with metric or nautical units.
time (UTC)temp
F
wind
direction
speed
MPH
gust
MPH
rain 1hr
in
rain 24hr
in
rain mn
in
humidity
%
barometer
mb
20260903030524 95 302 1.0 4.0 0.00 0.00 0.00 35 1009.2
20260903030056 95 299 1.0 4.0 0.00 0.00 0.00 35 1009.1
20260903025524 96 274 1.0 7.0 0.00 0.00 0.00 35 1009.0
20260903025029 96 292 2.0 7.0 0.00 0.00 0.00 34 1008.9
20260903024554 96 303 1.0 5.0 0.00 0.00 0.00 34 1008.9
20260903024026 96 257 1.0 7.0 0.00 0.00 0.00 34 1009.0
20260903023527 96 299 2.0 7.0 0.00 0.00 0.00 34 1008.9
20260903023047 96 273 1.0 6.0 0.00 0.00 0.00 33 1008.9
20260903022525 96 290 2.0 7.0 0.00 0.00 0.00 33 1008.9
20260903022025 96 302 2.0 7.0 0.00 0.00 0.00 33 1008.9
20260903021546 96 306 2.0 7.0 0.00 0.00 0.00 33 1008.8
20260903021026 96 261 1.0 7.0 0.00 0.00 0.00 33 1008.9
20260903020525 97 275 2.0 8.0 0.00 0.00 0.00 32 1008.7
20260903020054 97 282 1.0 8.0 0.00 0.00 0.00 32 1008.7
20260903015527 97 292 2.0 7.0 0.00 0.00 0.00 32 1008.7
20260903015028 97 270 2.0 8.0 0.00 0.00 0.00 32 1008.7
20260903014555 97 0 3.0 8.0 0.00 0.00 0.00 32 1008.7
20260903014026 98 290 2.0 8.0 0.00 0.00 0.00 31 1008.5
20260903013525 98 288 2.0 8.0 0.00 0.00 0.00 31 1008.5
20260903013046 98 303 2.0 8.0 0.00 0.00 0.00 31 1008.3
20260903012528 98 266 1.0 9.0 0.00 0.00 0.00 31 1008.3
20260903012024 98 297 3.0 9.0 0.00 0.00 0.00 30 1008.3
20260903011557 98 290 3.0 9.0 0.00 0.00 0.00 30 1008.3
20260903011028 99 300 2.0 8.0 0.00 0.00 0.00 30 1008.3
20260903010527 99 299 2.0 8.0 0.00 0.00 0.00 30 1008.3
20260903010051 99 275 3.0 8.0 0.00 0.00 0.00 30 1008.4
20260903005523 99 256 2.0 8.0 0.00 0.00 0.00 30 1008.5
20260903005026 99 0 1.0 8.0 0.00 0.00 0.00 30 1008.5
20260903004550 99 0 0.0 9.0 0.00 0.00 0.00 29 1008.5
20260903004026 99 246 1.0 9.0 0.00 0.00 0.00 29 1008.3
20260903003526 99 246 2.0 7.0 0.00 0.00 0.00 29 1008.3
20260903003047 100 313 3.0 7.0 0.00 0.00 0.00 29 1008.3
20260903002525 100 304 2.0 6.0 0.00 0.00 0.00 28 1008.5
20260903002026 101 297 1.0 8.0 0.00 0.00 0.00 28 1008.6
20260903001600 101 275 2.0 8.0 0.00 0.00 0.00 28 1008.6
20260903001026 101 327 1.0 8.0 0.00 0.00 0.00 27 1008.7
20260903000525 101 301 2.0 8.0 0.00 0.00 0.00 28 1008.7
20260903000050 101 247 2.0 10.0 0.00 0.00 0.00 28 1008.6
20260902235527 101 251 3.0 10.0 0.00 0.00 0.00 28 1008.6
20260902235025 101 283 1.0 8.0 0.00 0.00 0.00 28 1008.6
20260902234558 101 0 3.0 8.0 0.00 0.00 0.00 27 1008.7
20260902234027 102 341 2.0 8.0 0.00 0.00 0.00 27 1008.8
20260902233527 102 262 3.0 8.0 0.00 0.00 0.00 27 1008.8
20260902233047 102 309 3.0 9.0 0.00 0.00 0.00 27 1008.8
20260902232529 103 242 2.0 9.0 0.00 0.00 0.00 27 1009.0
20260902232025 102 257 1.0 7.0 0.00 0.00 0.00 27 1008.9
20260902231559 102 187 3.0 9.0 0.00 0.00 0.00 28 1009.1
20260902231026 102 264 1.0 11.0 0.00 0.00 0.00 28 1009.1
20260902230531 102 226 3.0 11.0 0.00 0.00 0.00 28 1009.1
20260902230051 101 223 4.0 12.0 0.00 0.00 0.00 28 1009.4
20260902225527 101 273 5.0 12.0 0.00 0.00 0.00 28 1009.4
20260902225027 102 309 4.0 12.0 0.00 0.00 0.00 27 1009.4
20260902224553 101 331 4.0 11.0 0.00 0.00 0.00 28 1009.4
20260902224027 101 301 4.0 11.0 0.00 0.00 0.00 27 1009.4
20260902223531 102 314 2.0 11.0 0.00 0.00 0.00 29 1009.5
20260902223052 103 132 4.0 11.0 0.00 0.00 0.00 27 1009.6
20260902222525 102 220 3.0 6.0 0.00 0.00 0.00 28 1009.7
20260902222032 102 333 1.0 7.0 0.00 0.00 0.00 29 1009.8
20260902221550 102 297 1.0 8.0 0.00 0.00 0.00 29 1009.7
20260902221028 102 265 3.0 11.0 0.00 0.00 0.00 29 1010.0
20260902220525 101 252 2.0 11.0 0.00 0.00 0.00 29 1009.9
20260902220058 102 231 2.0 9.0 0.00 0.00 0.00 29 1010.1
20260902215525 102 262 2.0 9.0 0.00 0.00 0.00 29 1010.2
20260902215025 101 205 2.0 9.0 0.00 0.00 0.00 31 1010.1
20260902214545 101 315 3.0 9.0 0.00 0.00 0.00 30 1010.0
20260902214026 102 196 3.0 8.0 0.00 0.00 0.00 31 1010.3
20260902213527 101 183 2.0 12.0 0.00 0.00 0.00 31 1010.3
20260902213102 101 210 5.0 13.0 0.00 0.00 0.00 31 1010.5
20260902212525 101 200 2.0 13.0 0.00 0.00 0.00 31 1010.4
20260902212025 102 211 3.0 11.0 0.00 0.00 0.00 30 1010.6
20260902211550 101 197 5.0 12.0 0.00 0.00 0.00 31 1010.7
20260902211030 100 213 4.0 12.0 0.00 0.00 0.00 32 1010.6
20260902210527 100 292 3.0 11.0 0.00 0.00 0.00 32 1010.7
20260902210048 100 263 4.0 11.0 0.00 0.00 0.00 33 1010.8
20260902205525 100 290 5.0 14.0 0.00 0.00 0.00 32 1010.8
20260902205026 101 217 5.0 14.0 0.00 0.00 0.00 32 1010.8
20260902204548 101 226 3.0 11.0 0.00 0.00 0.00 31 1011.1
20260902204025 101 258 4.0 11.0 0.00 0.00 0.00 31 1011.1
20260902203525 101 180 5.0 11.0 0.00 0.00 0.00 32 1011.2
20260902203101 101 218 3.0 10.0 0.00 0.00 0.00 32 1011.1
20260902202525 101 47 1.0 7.0 0.00 0.00 0.00 32 1011.3
20260902202026 100 207 1.0 10.0 0.00 0.00 0.00 34 1011.4
20260902201547 99 310 3.0 11.0 0.00 0.00 0.00 34 1011.5
20260902201023 99 0 3.0 11.0 0.00 0.00 0.00 34 1011.6
20260902200526 100 297 2.0 7.0 0.00 0.00 0.00 34 1011.7
20260902200056 99 169 1.0 7.0 0.00 0.00 0.00 34 1011.8
20260902195526 98 297 2.0 8.0 0.00 0.00 0.00 35 1012.0
20260902195029 99 227 3.0 8.0 0.00 0.00 0.00 34 1012.1
20260902194547 100 264 2.0 8.0 0.00 0.00 0.00 34 1012.1
20260902194026 100 198 3.0 10.0 0.00 0.00 0.00 34 1012.1
20260902193525 100 161 3.0 10.0 0.00 0.00 0.00 34 1012.2
20260902193049 100 189 2.0 9.0 0.00 0.00 0.00 35 1012.3
20260902192525 99 200 2.0 9.0 0.00 0.00 0.00 35 1012.2
20260902192031 99 214 4.0 8.0 0.00 0.00 0.00 35 1012.3
20260902191552 99 224 3.0 9.0 0.00 0.00 0.00 35 1012.5
20260902191029 99 161 3.0 9.0 0.00 0.00 0.00 35 1012.5
20260902190525 99 188 2.0 10.0 0.00 0.00 0.00 35 1012.5
20260902190044 99 189 3.0 10.0 0.00 0.00 0.00 36 1012.7
20260902185525 97 218 1.0 7.0 0.00 0.00 0.00 38 1012.6
20260902185026 97 301 1.0 7.0 0.00 0.00 0.00 37 1012.8
20260902184609 98 300 1.0 8.0 0.00 0.00 0.00 37 1012.9
20260902184030 98 171 3.0 8.0 0.00 0.00 0.00 38 1012.9
20260902183524 97 171 3.0 8.0 0.00 0.00 0.00 39 1013.1
20260902183049 97 158 2.0 9.0 0.00 0.00 0.00 39 1013.1
20260902182527 97 169 2.0 10.0 0.00 0.00 0.00 39 1013.2
20260902182029 97 148 3.0 10.0 0.00 0.00 0.00 39 1013.3
20260902181549 97 0 2.0 9.0 0.00 0.00 0.00 38 1013.4
20260902181026 97 190 4.0 9.0 0.00 0.00 0.00 38 1013.4
20260902180525 97 208 1.0 8.0 0.00 0.00 0.00 39 1013.4
20260902180046 97 207 3.0 8.0 0.00 0.00 0.00 40 1013.5
20260902175523 96 287 3.0 8.0 0.00 0.00 0.00 40 1013.4
20260902175026 96 250 1.0 6.0 0.00 0.00 0.00 40 1013.4
20260902174554 96 192 1.0 6.0 0.00 0.00 0.00 40 1013.4
20260902174029 96 224 1.0 7.0 0.00 0.00 0.00 39 1013.5
20260902173525 97 302 2.0 9.0 0.00 0.00 0.00 39 1013.6
20260902173049 96 0 1.0 9.0 0.00 0.00 0.00 40 1013.6
20260902172529 95 217 3.0 8.0 0.00 0.00 0.00 41 1013.7
20260902172026 95 0 0.0 7.0 0.00 0.00 0.00 41 1013.8
20260902171549 95 252 2.0 6.0 0.00 0.00 0.00 41 1013.7
20260902171025 95 199 1.0 6.0 0.00 0.00 0.00 41 1013.7
20260902170526 95 227 1.0 5.0 0.00 0.00 0.00 42 1013.7
20260902170047 94 261 1.0 5.0 0.00 0.00 0.00 42 1013.7
20260902165524 95 281 1.0 7.0 0.00 0.00 0.00 42 1013.5
20260902165024 95 218 1.0 7.0 0.00 0.00 0.00 43 1013.7
20260902164552 95 116 2.0 7.0 0.00 0.00 0.00 43 1013.6
20260902164024 94 197 1.0 6.0 0.00 0.00 0.00 44 1013.5
20260902163524 94 175 1.0 4.0 0.00 0.00 0.00 45 1013.5
20260902163101 93 74 1.0 4.0 0.00 0.00 0.00 48 1013.5
20260902162523 93 177 1.0 5.0 0.00 0.00 0.00 48 1013.5
20260902162028 92 284 1.0 5.0 0.00 0.00 0.00 49 1013.5
20260902161548 92 202 1.0 6.0 0.00 0.00 0.00 50 1013.5
20260902161029 91 0 1.0 8.0 0.00 0.00 0.00 51 1013.5
20260902160529 91 207 2.0 8.0 0.00 0.00 0.00 51 1013.4
20260902160050 91 172 2.0 8.0 0.00 0.00 0.00 51 1013.4
20260902155525 91 167 1.0 6.0 0.00 0.00 0.00 52 1013.4
20260902155029 90 163 2.0 6.0 0.00 0.00 0.00 53 1013.4
20260902154548 90 0 0.0 4.0 0.00 0.00 0.00 53 1013.4
20260902154024 90 268 1.0 5.0 0.00 0.00 0.00 54 1013.3
20260902153526 89 214 1.0 5.0 0.00 0.00 0.00 53 1013.3
20260902153046 89 177 1.0 5.0 0.00 0.00 0.00 54 1013.3
20260902152525 88 179 1.0 6.0 0.00 0.00 0.00 56 1013.3
20260902152029 88 167 2.0 6.0 0.00 0.00 0.00 57 1013.3
20260902151556 87 0 1.0 6.0 0.00 0.00 0.00 59 1013.2
20260902151024 86 0 0.0 6.0 0.00 0.00 0.00 61 1013.2
20260902150526 86 201 2.0 7.0 0.00 0.00 0.00 61 1013.2
20260902150048 85 147 2.0 7.0 0.00 0.00 0.00 62 1013.3
20260902145524 85 135 2.0 7.0 0.00 0.00 0.00 62 1013.1
20260902145026 85 161 2.0 5.0 0.00 0.00 0.00 63 1013.1
20260902144549 84 165 1.0 9.0 0.00 0.00 0.00 64 1013.1
20260902144025 84 0 2.0 9.0 0.00 0.00 0.00 65 1013.1
20260902143524 83 150 2.0 9.0 0.00 0.00 0.00 65 1013.1
20260902143046 83 174 2.0 9.0 0.00 0.00 0.00 66 1013.0
20260902142525 83 142 4.0 9.0 0.00 0.00 0.00 66 1013.0
20260902142027 82 175 2.0 7.0 0.00 0.00 0.00 66 1013.0
20260902141550 82 183 3.0 11.0 0.00 0.00 0.00 67 1013.0
20260902141026 82 144 2.0 11.0 0.00 0.00 0.00 67 1012.8
20260902140525 82 139 5.0 12.0 0.00 0.00 0.00 67 1012.8
20260902140046 81 178 5.0 12.0 0.00 0.00 0.00 67 1012.7
20260902135526 81 151 4.0 11.0 0.00 0.00 0.00 68 1012.6
20260902135024 81 152 3.0 9.0 0.00 0.00 0.00 68 1012.6
20260902134551 81 0 4.0 9.0 0.00 0.00 0.00 68 1012.5
20260902134029 81 129 3.0 8.0 0.00 0.00 0.00 68 1012.5
20260902133526 80 148 3.0 8.0 0.00 0.00 0.00 68 1012.4
20260902133053 80 155 4.0 8.0 0.00 0.00 0.00 68 1012.4
20260902132525 80 176 3.0 8.0 0.00 0.00 0.00 68 1012.3
20260902132028 80 151 2.0 7.0 0.00 0.00 0.00 68 1012.3
20260902131555 80 145 2.0 9.0 0.00 0.00 0.00 68 1012.1
20260902131026 80 163 2.0 9.0 0.00 0.00 0.00 68 1012.1
20260902130526 80 107 2.0 6.0 0.00 0.00 0.00 68 1012.1
20260902130045 80 141 2.0 6.0 0.00 0.00 0.00 68 1012.0
20260902125525 80 103 2.0 10.0 0.00 0.00 0.00 68 1012.0
20260902125028 80 112 2.0 10.0 0.00 0.00 0.00 68 1011.9
20260902124549 80 136 2.0 10.0 0.00 0.00 0.00 68 1011.9
20260902124023 80 153 3.0 10.0 0.00 0.00 0.00 68 1012.0
20260902123526 81 155 4.0 10.0 0.00 0.00 0.00 67 1011.7
20260902123104 81 146 4.0 10.0 0.00 0.00 0.00 67 1011.8
20260902122529 81 149 3.0 10.0 0.00 0.00 0.00 67 1011.8
20260902122025 81 75 3.0 10.0 0.00 0.00 0.00 67 1011.8
20260902121555 81 146 3.0 9.0 0.00 0.00 0.00 67 1011.8
20260902121024 81 148 3.0 9.0 0.00 0.00 0.00 67 1011.8
20260902120527 81 153 2.0 8.0 0.00 0.00 0.00 67 1011.7
20260902120106 81 157 3.0 8.0 0.00 0.00 0.00 66 1011.6
20260902115524 81 137 2.0 7.0 0.00 0.00 0.00 66 1011.6
20260902115025 81 142 2.0 8.0 0.00 0.00 0.00 66 1011.6
20260902114548 81 175 2.0 8.0 0.00 0.00 0.00 66 1011.5
20260902114024 81 136 2.0 6.0 0.00 0.00 0.00 66 1011.5
20260902113524 81 65 2.0 6.0 0.00 0.00 0.00 67 1011.6
20260902113045 81 69 1.0 6.0 0.00 0.00 0.00 67 1011.6
20260902112526 82 97 1.0 6.0 0.00 0.00 0.00 66 1011.6
20260902112026 82 103 2.0 6.0 0.00 0.00 0.00 66 1011.5
20260902111554 82 107 0.0 5.0 0.00 0.00 0.00 66 1011.4
20260902111023 82 107 0.0 7.0 0.00 0.00 0.00 66 1011.5
20260902110523 82 136 2.0 7.0 0.00 0.00 0.00 65 1011.5
20260902110047 82 171 2.0 6.0 0.00 0.00 0.00 65 1011.6
20260902105524 82 150 1.0 4.0 0.00 0.00 0.00 65 1011.5
20260902105024 82 126 1.0 4.0 0.00 0.00 0.00 65 1011.6
20260902104556 82 107 1.0 4.0 0.00 0.00 0.00 65 1011.6
20260902104025 82 94 0.0 3.0 0.00 0.00 0.00 65 1011.6
20260902103525 82 94 1.0 3.0 0.00 0.00 0.00 64 1011.5
20260902103054 82 0 1.0 3.0 0.00 0.00 0.00 64 1011.5
20260902102525 82 94 0.0 3.0 0.00 0.00 0.00 64 1011.5
20260902102024 83 94 1.0 3.0 0.00 0.00 0.00 64 1011.5
20260902101550 83 148 1.0 3.0 0.00 0.00 0.00 64 1011.5
20260902101030 83 148 1.0 3.0 0.00 0.00 0.00 64 1011.6
20260902100524 83 149 1.0 3.0 0.00 0.00 0.00 64 1011.5
20260902095525 83 0 1.0 3.0 0.00 0.00 0.00 63 1011.4
20260902095024 83 0 1.0 3.0 0.00 0.00 0.00 63 1011.5
20260902094545 83 120 1.0 3.0 0.00 0.00 0.00 63 1011.4
20260902094024 83 148 1.0 3.0 0.00 0.00 0.00 63 1011.5
20260902093524 84 148 1.0 3.0 0.00 0.00 0.00 62 1011.4
20260902093050 84 148 1.0 5.0 0.00 0.00 0.00 62 1011.4
20260902092524 84 148 1.0 5.0 0.00 0.00 0.00 62 1011.4
20260902092024 84 148 2.0 5.0 0.00 0.00 0.00 61 1011.4
20260902091552 84 148 2.0 4.0 0.00 0.00 0.00 61 1011.3
20260902091026 84 0 0.0 3.0 0.00 0.00 0.00 61 1011.3
20260902090533 84 148 1.0 3.0 0.00 0.00 0.00 60 1011.3
20260902090047 84 148 1.0 2.0 0.00 0.00 0.00 60 1011.3
20260902085524 85 148 1.0 5.0 0.00 0.00 0.00 60 1011.4
20260902085024 85 148 0.0 5.0 0.00 0.00 0.00 59 1011.4
20260902084547 85 0 1.0 6.0 0.00 0.00 0.00 59 1011.5
20260902084024 85 171 2.0 6.0 0.00 0.00 0.00 59 1011.5
20260902083525 85 139 1.0 5.0 0.00 0.00 0.00 59 1011.6
20260902083108 85 137 1.0 5.0 0.00 0.00 0.00 59 1011.6
20260902082524 86 139 1.0 6.0 0.00 0.00 0.00 59 1011.6
20260902082025 86 139 1.0 6.0 0.00 0.00 0.00 58 1011.7
20260902081550 86 157 2.0 5.0 0.00 0.00 0.00 58 1011.6
20260902081027 86 146 2.0 5.0 0.00 0.00 0.00 58 1011.7
20260902080526 86 155 2.0 5.0 0.00 0.00 0.00 58 1011.7
20260902080050 86 182 1.0 5.0 0.00 0.00 0.00 58 1011.6
20260902075525 87 147 1.0 5.0 0.00 0.00 0.00 57 1011.5
20260902075026 87 148 2.0 5.0 0.00 0.00 0.00 57 1011.5
20260902074552 87 140 2.0 4.0 0.00 0.00 0.00 57 1011.5
20260902074026 87 140 1.0 3.0 0.00 0.00 0.00 57 1011.5
20260902073524 87 118 1.0 3.0 0.00 0.00 0.00 57 1011.5
20260902073041 87 94 1.0 3.0 0.00 0.00 0.00 56 1011.5
20260902072526 88 94 0.0 3.0 0.00 0.00 0.00 56 1011.4
20260902072025 88 94 0.0 3.0 0.00 0.00 0.00 55 1011.4
20260902071547 88 0 1.0 3.0 0.00 0.00 0.00 54 1011.4
20260902071024 88 117 1.0 3.0 0.00 0.00 0.00 53 1011.3
20260902070525 88 117 0.0 3.0 0.00 0.00 0.00 53 1011.1
20260902070049 88 0 0.0 3.0 0.00 0.00 0.00 52 1011.1
20260902065529 89 117 0.0 3.0 0.00 0.00 0.00 52 1011.1
20260902065025 89 0 0.0 2.0 0.00 0.00 0.00 52 1011.1
20260902064546 89 117 1.0 2.0 0.00 0.00 0.00 51 1011.1
20260902064024 89 117 0.0 2.0 0.00 0.00 0.00 51 1011.1
20260902063525 89 117 0.0 2.0 0.00 0.00 0.00 51 1011.0
20260902063057 89 117 0.0 2.0 0.00 0.00 0.00 50 1011.1
20260902062525 89 0 0.0 2.0 0.00 0.00 0.00 51 1011.0
20260902062026 89 117 0.0 3.0 0.00 0.00 0.00 50 1010.9
20260902061549 89 117 0.0 4.0 0.00 0.00 0.00 51 1010.9
20260902061025 89 130 1.0 5.0 0.00 0.00 0.00 51 1011.1
20260902060526 89 171 2.0 5.0 0.00 0.00 0.00 52 1011.1
20260902060047 89 186 1.0 4.0 0.00 0.00 0.00 52 1011.1
20260902055523 89 153 1.0 5.0 0.00 0.00 0.00 52 1011.1
20260902055025 89 177 1.0 5.0 0.00 0.00 0.00 52 1011.3
20260902054551 89 0 2.0 4.0 0.00 0.00 0.00 52 1011.3
20260902054028 89 200 1.0 4.0 0.00 0.00 0.00 53 1011.4
20260902053526 89 187 1.0 4.0 0.00 0.00 0.00 53 1011.3
20260902053049 89 187 1.0 4.0 0.00 0.00 0.00 52 1011.3
20260902052525 89 187 1.0 5.0 0.00 0.00 0.00 52 1011.3
20260902052024 89 188 1.0 5.0 0.00 0.00 0.00 52 1011.2
20260902051547 89 185 1.0 5.0 0.00 0.00 0.00 51 1011.2
20260902051023 89 144 2.0 5.0 0.00 0.00 0.00 51 1011.1
20260902050527 89 140 2.0 5.0 0.00 0.00 0.00 51 1011.0
20260902050058 89 153 2.0 4.0 0.00 0.00 0.00 51 1011.0
20260902045526 89 175 1.0 3.0 0.00 0.00 0.00 50 1011.1
20260902045024 90 158 1.0 3.0 0.00 0.00 0.00 49 1010.9
20260902044552 90 158 0.0 2.0 0.00 0.00 0.00 49 1010.9
20260902044024 90 0 0.0 2.0 0.00 0.00 0.00 49 1010.8
20260902043524 90 158 0.0 3.0 0.00 0.00 0.00 48 1010.8
20260902043051 90 158 1.0 3.0 0.00 0.00 0.00 48 1010.9
20260902042531 90 158 1.0 3.0 0.00 0.00 0.00 47 1010.8
20260902042025 91 158 0.0 3.0 0.00 0.00 0.00 46 1010.8
20260902041544 91 158 0.0 1.0 0.00 0.00 0.00 46 1010.8
20260902041024 91 0 0.0 2.0 0.00 0.00 0.00 46 1010.7
20260902040523 91 0 0.0 2.0 0.00 0.00 0.00 45 1010.7
20260902040058 91 158 0.0 2.0 0.00 0.00 0.00 45 1010.6
20260902035524 91 158 0.0 2.0 0.00 0.00 0.00 44 1010.4
20260902035023 91 158 0.0 2.0 0.00 0.00 0.00 44 1010.4
20260902034549 91 158 0.0 2.0 0.00 0.00 0.00 44 1010.4
20260902034025 91 158 1.0 2.0 0.00 0.00 0.00 44 1010.3
20260902033524 91 158 0.0 2.0 0.00 0.00 0.00 43 1010.2
20260902033051 92 0 1.0 2.0 0.00 0.00 0.00 43 1010.0
20260902032523 92 219 0.0 2.0 0.00 0.00 0.00 42 1009.9
20260902032025 92 219 0.0 2.0 0.00 0.00 0.00 41 1009.8
20260902031555 92 0 0.0 2.0 0.00 0.00 0.00 41 1009.8
20260902031029 92 219 0.0 2.0 0.00 0.00 0.00 40 1009.7